Simultaneous Nadir Overpasses (SNOs) Predictions

Prediction of SNOs between NOAA-20 and AQUA Satellite Orbit:

Table of predicted SNOs for the next 14.0 days since TLE Epoch: 4/9/2022
Index Date (NOAA-20) Time (NOAA-20) Lat,Lon (NOAA-20) SZA (NOAA-20 ) Date (AQUA) Time (AQUA) Lat,Lon (AQUA) SZA (AQUA ) Distance(km) Time Diff (sec)
1 04/11/2022 04:14:43 -77.26,-179.67 92.50 04/11/2022 04:14:49 -77.26,-179.77 92.48 2.62 6
2 04/11/2022 05:05:14 77.82, -9.76 86.75 04/11/2022 05:04:02 77.82, -9.78 86.81 0.47 72
3 04/13/2022 19:41:10 76.57, 125.95 87.42 04/13/2022 19:41:50 76.57, 126.03 87.36 2.33 40
4 04/13/2022 20:31:36 -77.42, -63.18 93.70 04/13/2022 20:30:59 -77.43, -63.12 93.69 1.79 37
5 04/16/2022 11:08:21 -73.76, 66.01 90.24 04/16/2022 11:09:35 -73.68, 66.45 90.35 16.91 74
6 04/16/2022 11:57:48 77.34,-115.11 85.46 04/16/2022 11:57:46 77.33,-115.21 85.48 2.68 2
7 04/16/2022 12:44:02 -79.03, 138.20 109.65 04/16/2022 12:42:49 -79.72, 141.05 109.29 97.08 73
8 04/19/2022 03:24:11 -76.88,-168.60 94.89 04/19/2022 03:24:43 -76.88,-168.60 94.92 0.24 32
9 04/19/2022 04:14:39 77.57, 1.73 84.20 04/19/2022 04:13:53 77.58, 1.77 84.23 1.01 46
10 04/21/2022 18:50:31 76.46, 138.26 84.72 04/21/2022 18:51:36 76.47, 138.27 84.66 0.32 65



Historial Predications of SNOs between NOAA-20 and AQUA
